Location: Waning Moon II Observatory
(30.3730°N, 89.7620°W)
Time: 20:04:07
(UTC-06:00)

Daily predictions for brighter satellites

Satellite Brightness Start Highest point End
(mag) Time Altitude Azimuth Time Altitude Azimuth Time Altitude Azimuth
Cosmos 2366 rocket 4.1 17:41:04 10° N 17:47:09 57° E 17:53:09 10° SSE
CZ-4 R/B 1.5 17:45:01 10° SSE 17:49:13 77° ENE 17:53:27 10° N
Cosmos 1626 2.1 17:48:42 10° S 17:52:23 73° E 17:56:05 10° N
YAOGAN 1 2.7 17:48:14 10° SSE 17:52:26 54° ENE 17:56:40 10° N
Cosmos 1346 Rocket 3.6 17:49:11 10° NNE 17:52:35 28° ENE 17:55:57 10° SE
SKYMED 2 3.6 17:48:18 10° NNE 17:52:38 67° ESE 17:56:55 10° S
Hubble Space Telescope 2.5 17:51:29 10° SSW 17:54:44 23° SSE 17:57:59 10° ESE
Cosmos 1315 Rocket 3.6 17:51:04 10° SSW 17:54:54 54° W 17:58:46 10° N
Ariane Rocket 3.5 17:53:32 10° S 17:58:33 67° WSW 18:03:36 10° NNW
SL-27 R/B 4.3 17:57:07 10° SE 17:58:55 14° E 18:00:45 10° ENE
Nadezhda 3 Rocket 4.3 17:54:32 10° SSE 18:00:27 45° E 18:06:26 10° NNE
Cosmos 2221 4.4 17:57:23 10° NNW 18:01:24 36° W 18:05:24 10° SSW
Centaur D-1A AC-32 4.2 18:02:07 10° S 18:04:22 15° SSE 18:07:15 10° ESE
Cosmos 2151 3.3 18:02:47 10° SSE 18:06:50 45° E 18:10:56 10° NNE
ALOS 2.3 18:08:41 10° SSE 18:13:15 60° ENE 18:17:51 10° N
SL-24 R/B - RUBIN 2 3.4 18:10:15 10° NNW 18:14:39 78° ENE 18:18:55 10° SSE
Landsat 4 3.9 18:11:40 10° N 18:15:23 74° WNW 18:19:04 10° SSW
ERS-2 3.0 18:12:17 10° SE 18:15:24 27° ENE 18:18:32 10° NNE
EO 1 Del DPAF 3.1 18:12:18 10° NNE 18:16:09 76° ESE 18:19:58 10° S
Cosmos 1656 Rocket 3.6 18:10:40 10° NNW 18:16:12 85° ENE 18:21:46 10° SSE
Centaur AC-64 3.7 18:14:46 10° SSW 18:16:35 20° SSE 18:19:32 10° ESE
Cosmos 332 Rocket 3.8 18:12:35 10° SSW 18:17:28 88° WNW 18:22:24 10° NNE
MTI 4.5 18:15:33 10° N 18:18:40 54° WNW 18:21:47 10° SSW
H-2A ROCKET BODY 4.5 18:13:54 10° WSW 18:21:12 81° SSE 18:55:47 19° E
MONITOR-E 4.0 18:21:16 10° SSE 18:24:18 89° WSW 18:27:21 10° N
CZ-4C R/B 2.4 18:22:50 10° S 18:27:29 42° ESE 18:31:21 16° NE
Cosmos 1515 Rocket 3.6 18:25:34 10° N 18:29:48 52° E 18:34:00 10° SSE
Cosmos 1777 Rocket 4.1 18:24:42 10° NNW 18:29:57 80° WSW 18:35:12 10° S
Tiangong 1 1.4 18:28:55 10° NW 18:31:09 29° NNE 18:31:09 29° NNE
Cosmos 1703 4.2 18:28:32 10° SSW 18:32:23 51° W 18:36:16 10° N
SPOT 3 Rocket 3.4 18:28:46 10° SSE 18:33:53 74° ENE 18:39:02 10° N
Cosmos 1500 Rocket 3.5 18:31:25 10° S 18:35:52 90° E 18:40:21 10° N
OAO 3 Rocket 3.0 18:31:23 10° WNW 18:36:05 82° NNE 18:39:05 22° ESE
Lacrosse 5 1.8 18:32:14 10° SSW 18:37:19 79° SE 18:40:55 19° NE
FENGYUN 3A 3.9 18:37:37 10° S 18:42:56 70° WSW 18:48:17 10° NNW
Meteor 2-15 4.4 18:37:24 10° S 18:43:31 82° E 18:49:38 10° N
USA 81 4.1 18:40:52 10° S 18:46:07 83° W 18:51:25 10° N
Cosmos 2239 Rocket 4.5 18:40:14 10° N 18:46:14 54° E 18:52:14 10° SSE
ASTRO E2 2.6 18:45:56 10° W 18:49:56 83° N 18:51:07 44° E
Cosmos 2208 Rocket 4.3 18:45:23 10° SSW 18:50:36 71° WNW 18:55:56 10° N
Cosmos 468 Rocket 3.8 18:47:23 10° S 18:52:29 76° ESE 18:56:34 16° NNE
Cosmos 841 Rocket 4.3 18:53:18 10° SSE 18:57:23 31° ESE 18:57:23 31° ESE
Cosmos 1814 Rocket 4.2 18:52:58 10° S 18:58:06 50° ESE 18:59:56 35° NE
Cosmos 1898 Rocket 4.4 18:55:56 10° N 18:59:21 30° NE 18:59:21 30° NE
ATLAS CENTAUR R/B 2.8 18:58:16 10° S 18:59:50 20° SSE 18:59:50 20° SSE
ISS -3.3 19:00:30 10° WSW 19:03:40 50° NW 19:03:52 49° NNW
Cosmos 2228 Rocket 4.0 18:59:16 10° NNW 19:03:44 52° W 19:08:10 10° S
Cosmos 1763 Rocket 3.4 19:00:36 10° S 19:05:35 56° ESE 19:06:38 47° ENE
Cosmos 2082 Rocket 2.4 19:00:19 10° S 19:05:44 48° ESE 19:06:43 43° ENE
NOSS 3-4 (A) 4.5 19:00:46 10° NW 19:07:53 58° WSW 19:15:27 10° SSE
NOSS 3-4 (C) 4.5 19:00:52 10° NW 19:08:00 59° WSW 19:15:34 10° SSE
H-2A R/B 3.7 19:12:23 10° S 19:16:02 47° W 19:19:46 10° NNW
SEDSat Delta rocket 3.8 19:10:41 10° W 19:17:27 84° N 19:19:05 53° E
Cosmos 1833 Rocket 2.5 19:22:41 10° SSW 19:28:17 84° ESE 19:29:06 66° NNE
Cosmos 1805 Rocket 3.8 19:26:51 10° SSW 19:31:08 65° W 19:31:08 65° W
Hubble Space Telescope 2.1 19:31:36 10° WSW 19:34:20 37° SW 19:34:20 37° SW
Cosmos 1339 Rocket 4.5 19:44:29 10° S 19:50:33 77° W 19:51:16 68° NNW
CZ-4C R/B 4.2 20:12:22 10° W 20:16:10 20° NW 20:16:36 20° NW
Atlas Centaur 2 4.0 20:10:05 10° SW 20:13:58 27° SSW 20:13:58 27° SSW
Lacrosse 5 4.4 20:17:49 10° WNW 20:20:11 15° NW 20:20:11 15° NW
